Location: Gwatt
(46.7204°N, 7.6223°E)
Time: 18:47:27
(UTC+00:00)

Transit 2A - Pass Details

Date: 21 January 2021
Orbit: 600 x 958 km, 66.7° (Epoch: 26 February)

Event Time Altitude Azimuth Distance (km) Brightness Sun altitude
Rises 12:51:57 0° 324° (NW) 3,031 8.8 21.6°
Reaches altitude 10° 12:54:22 10° 321° (NW) 2,068 8.0 21.5°
Maximum altitude 12:58:55 64° 241° (WSW) 694 6.5 21.2°
Drops below altitude 10° 13:03:13 10° 160° (SSE) 1,946 9.0 21.0°
Sets 13:05:25 0° 157° (SSE) 2,836 9.6 20.8°
